Zurück zum Katalog

FENGYUN 1C DEB

AktivSSO
NORAD 29779·DEBRIS·🇨🇳 China

Gestartet May 10, 1999 von Taiyuan Satellite Launch Center

Loading…

Nächste Überflüge (nächste 24 Stunden)

TLE

AktuellSource: Space-Track

Epoche: Sep 13, 2026, 22:36 UTC

1 29779U 99025BV  26256.94180305  .00000239  00000-0  14581-3 0  9996
2 29779  98.6735 264.9473 0064251  99.5247 261.3195 14.13670102 13010

Verfolge FENGYUN 1C DEB in Echtzeit mit AllMySat

Download on the App Store